"Pseudo-MPEC" for P12gfDs

Created 2025 Oct 4 7:35:21 UT using Find_Orb

Click here for an explanation of pseudo-MPECs

 
 Astrometry: 
     P12gfDs* C2025 10 02.56976003 29 14.098-16 43 00.15   ~A2FZ 20.51wXNEOCPF51
     P12gfDs  C2025 10 02.58119603 29 11.237-16 40 44.72   ~A2FZ 20.56wXNEOCPF51
     P12gfDs  C2025 10 02.59264503 29 08.387-16 38 29.30   ~A2FZ 20.63wXNEOCPF51
     P12gfDs  C2025 10 02.60409503 29 05.542-16 36 13.01   ~A2FZ 20.50wXNEOCPF51
     P12gfDs KC2025 10 03.07802103 27 30.15 -15 02 23.5    ~A3KZ 19.6 GVNEOCPL01
     P12gfDs KC2025 10 03.08264103 27 29.01 -15 01 27.8    ~A3KZ 19.7 GVNEOCPL01
     P12gfDs KC2025 10 03.08800003 27 27.73 -15 00 22.9    ~A3KZ 19.8 GVNEOCPL01
     P12gfDs 3C2025 10 03.51304303 26 00.584-13 33 30.79   ~A3EK 20.31GVNEOCPT14
     P12gfDs 3C2025 10 03.51408703 26 00.314-13 33 18.02   ~A3EK 20.40GVNEOCPT14
     P12gfDs 3C2025 10 03.51529503 26 00.006-13 33 03.27   ~A3EK 20.43GVNEOCPT14
     P12gfDs 3C2025 10 03.51626503 25 59.755-13 32 51.35   ~A3EK 20.37GVNEOCPT14

Station data:
(F51) Pan-STARRS 1, Haleakala  (N20.707234 W156.255910)  US/Hawaii.
   Observers J. Herman, T. Lowe, P. Minguez, A. Schultz, I. Smith. Measurers
   K. Chambers, T. de Boer, J. Fairlamb, H. Gao, M. Huber, C.-C. Lin, E.
   Magnier, Y. Ramanjooloo, R. Wainscoat, R. Weryk. 1.8-m Ritchey-Chrétien +
   CCD.
(L01) Višnjan Observatory, Tičan  (N45.290897 E13.749300)  Croatia.
   Observers K. Korlević, L. Poropat. Measurer K. Korlevic. 1.0-m f/2.9
   reflector + CCD.
(T14) Mauna Kea-UH/Tholen NEO Follow-Up (CFHT)  (N19.825252 W155.468876)
   US/Hawaii.  Observer R. Weryk. 3.6-m Canada-France-Hawaii Telescope.

Orbital elements:  P12gfDs
   Perihelion 2025 Sep 17.431035 +/- 0.109 TT = 10:20:41.4 (JD 2460935.931035)
Epoch 2025 Oct  3.0 TT = JDT 2460951.5   Earth MOID: 0.0653      AutoNEOCP
M   9.161377232 +/- 0.11            (J2000 ecliptic)
n   0.588438419 +/- 0.00392         Peri.  335.109451 +/- 0.11
a   1.410377493 +/- 0.00627         Node    20.350856 +/- 0.011
e   0.25754570 +/- 0.00292          Incl.   14.975387 +/- 0.14
P   1.675/611.777d         H 24.14  G  0.15   U  9.0
q 1.047140832 +/- 0.00055    Q 1.773614153 +/- 0.012
From 11 observations 2025 Oct. 2-3 (22.7 hr); mean residual 0".11
Residuals in arcseconds: 
251002 F51  .01-  .11+    251003 L01  .10-  .02-    251003 T14  .01-  .02+    
251002 F51  .04-  .12+    251003 L01  .38-  .11-    251003 T14  .02+  .04-    
251002 F51  .04+  .25-    251003 L01  .09-  .05+    251003 T14  .01-  .01-    
251002 F51  .05+  .01+    251003 T14  .02+  .04+    

Ephemerides (geocentric):
Date (UTC) HH   RA             Dec           delta  r     elong  mag " sig PA
---- --------  ------------   ------------  ------ ------ -----  --- --------
2025 10 04 08  03 23 04.290   -10 42 03.05  .07596 1.0570 136.8 20.3 1.44   2
2025 10 04 09  03 22 55.287   -10 33 15.98  .07592 1.0570 136.9 20.3 1.59   1
2025 10 04 10  03 22 46.272   -10 24 28.22  .07587 1.0571 137.0 20.2 1.75   1
2025 10 04 11  03 22 37.247   -10 15 39.77  .07583 1.0571 137.2 20.2 1.92   0
2025 10 04 12  03 22 28.210   -10 06 50.65  .07578 1.0572 137.3 20.2 2.09 179
2025 10 04 13  03 22 19.163   -09 58 00.85  .07574 1.0572 137.4 20.2 2.26 179
2025 10 04 14  03 22 10.104   -09 49 10.39  .07570 1.0573 137.5 20.2 2.45 178
2025 10 04 15  03 22 01.035   -09 40 19.27  .07565 1.0573 137.6 20.2 2.63 178
2025 10 04 16  03 21 51.955   -09 31 27.50  .07561 1.0573 137.7 20.2 2.83 178
2025 10 04 17  03 21 42.864   -09 22 35.09  .07557 1.0574 137.8 20.2 3.02 177
2025 10 04 18  03 21 33.762   -09 13 42.04  .07553 1.0574 137.9 20.2 3.23 177
2025 10 04 19  03 21 24.649   -09 04 48.37  .07549 1.0575 138.0 20.2 3.43 177
2025 10 04 20  03 21 15.525   -08 55 54.07  .07545 1.0575 138.1 20.2 3.65 176
2025 10 04 21  03 21 06.390   -08 46 59.16  .07541 1.0576 138.3 20.2 3.87 176
2025 10 04 22  03 20 57.245   -08 38 03.65  .07537 1.0576 138.4 20.2 4.09 176
2025 10 04 23  03 20 48.089   -08 29 07.54  .07534 1.0577 138.5 20.2 4.32 176
2025 10 05 00  03 20 38.921   -08 20 10.84  .07530 1.0577 138.6 20.2 4.56 175
2025 10 05 01  03 20 29.744   -08 11 13.56  .07526 1.0578 138.7 20.2 4.80 175
2025 10 05 02  03 20 20.555   -08 02 15.70  .07523 1.0578 138.8 20.2 5.05 175
2025 10 05 03  03 20 11.356   -07 53 17.27  .07519 1.0579 138.9 20.2 5.30 175
2025 10 05 04  03 20 02.146   -07 44 18.29  .07515 1.0579 139.0 20.2 5.55 175
2025 10 05 05  03 19 52.925   -07 35 18.76  .07512 1.0580 139.1 20.2 5.82 174
2025 10 05 06  03 19 43.693   -07 26 18.68  .07509 1.0580 139.3 20.2 6.09 174
2025 10 05 07  03 19 34.451   -07 17 18.07  .07505 1.0581 139.4 20.2 6.36 174
2025 10 05 08  03 19 25.198   -07 08 16.93  .07502 1.0581 139.5 20.2 6.64 174
2025 10 05 09  03 19 15.935   -06 59 15.28  .07499 1.0582 139.6 20.2 6.92 174
2025 10 05 10  03 19 06.661   -06 50 13.12  .07496 1.0582 139.7 20.2 7.21 174
2025 10 05 11  03 18 57.376   -06 41 10.45  .07493 1.0583 139.8 20.2 7.51 173
2025 10 05 12  03 18 48.081   -06 32 07.29  .07490 1.0583 139.9 20.1 7.81 173
2025 10 05 13  03 18 38.775   -06 23 03.65  .07487 1.0584 140.0 20.1 8.12 173
2025 10 05 14  03 18 29.458   -06 13 59.53  .07484 1.0585 140.1 20.1 8.43 173
2025 10 05 15  03 18 20.131   -06 04 54.94  .07481 1.0585 140.2 20.1 8.75 173
2025 10 05 16  03 18 10.794   -05 55 49.89  .07478 1.0586 140.3 20.1 9.07 173
2025 10 05 17  03 18 01.446   -05 46 44.39  .07475 1.0586 140.5 20.1 9.40 173
2025 10 05 18  03 17 52.087   -05 37 38.45  .07473 1.0587 140.6 20.1 9.73 173
2025 10 05 19  03 17 42.718   -05 28 32.08  .07470 1.0587 140.7 20.1 10.1 173
2025 10 05 20  03 17 33.339   -05 19 25.28  .07467 1.0588 140.8 20.1 10.4 172
2025 10 05 21  03 17 23.949   -05 10 18.07  .07465 1.0588 140.9 20.1 10.8 172
2025 10 05 22  03 17 14.548   -05 01 10.45  .07462 1.0589 141.0 20.1 11.1 172
2025 10 05 23  03 17 05.137   -04 52 02.43  .07460 1.0589 141.1 20.1 11.5 172
2025 10 06 00  03 16 55.716   -04 42 54.02  .07458 1.0590 141.2 20.1 11.9 172
2025 10 06 01  03 16 46.285   -04 33 45.23  .07455 1.0590 141.3 20.1 12.2 172
2025 10 06 02  03 16 36.843   -04 24 36.07  .07453 1.0591 141.4 20.1 12.6 172
2025 10 06 03  03 16 27.390   -04 15 26.55  .07451 1.0591 141.5 20.1 13.0 172
2025 10 06 04  03 16 17.928   -04 06 16.68  .07449 1.0592 141.6 20.1 13.4 172
2025 10 06 05  03 16 08.455   -03 57 06.46  .07447 1.0592 141.7 20.1 13.8 172
2025 10 06 06  03 15 58.972   -03 47 55.91  .07445 1.0593 141.9 20.1 14.2 172
2025 10 06 07  03 15 49.478   -03 38 45.03  .07443 1.0593 142.0 20.1 14.6 172